• Join FlightAware (Why Join?)
  • Login
  • US Flag GB Flag 
05:46 EDT


 

Airport Tracker/Info


-or-


 

Live Flight TrackerFlight Track Log ✈ SWA2166 ✈ 20-Apr-2013 ✈ KATL - KDEN

Flight Track Log - Related Links

Times and Time Zones

All times are in EDT time to prevent confusion due to time zone crossing. See the SWA2166 flight status page for this flight to view local times or setup timezone preferences in your user account.

Time Position Orientation Groundspeed Altitude Reporting Facility
EDT Latitude Longitude Course Direction KTS MPH feet Rate Location/Type
06:50 33.6500 -84.4500 287° West 148 170 2,400  Level Atlanta TRACON
06:51 33.6667 -84.5167 287° West 202 232 4,800 2,700 Climbing Atlanta TRACON
06:52 33.6667 -84.6000 270° West 250 288 7,900 2,880 Climbing Atlanta TRACON
06:54 33.7000 -84.7903 282° West 298 343 14,400 3,000 Climbing Atlanta Center
06:55 33.7203 -84.9128 281° West 330 380 17,600 3,000 Climbing Atlanta Center
06:56 33.7381 -85.0331 280° West 357 411 20,400 2,880 Climbing Atlanta Center
06:57 33.7558 -85.1556 280° West 368 423 23,400 2,760 Climbing Atlanta Center
06:58 33.7775 -85.2808 282° West 376 433 26,000 2,400 Climbing Atlanta Center
06:59 33.7972 -85.4061 281° West 376 433 28,300 2,280 Climbing Atlanta Center
07:00 33.8208 -85.5292 283° West 376 433 30,600 2,400 Climbing Atlanta Center
07:01 33.8400 -85.6544 280° West 381 438 33,100 2,400 Climbing Atlanta Center
07:02 33.8781 -85.7703 292° West 376 433 35,400 1,680 Climbing Atlanta Center
07:03 33.9103 -85.8636 293° West 364 419 36,500 960 Climbing Atlanta Center
07:04 33.9439 -85.9819 289° West 359 413 37,400 900 Climbing Atlanta Center
07:05 33.9858 -86.1006 293° West 372 428 38,400 1,020 Climbing Atlanta Center
07:06 34.0169 -86.2242 287° West 377 434 39,500 780 Climbing Atlanta Center
07:07 34.0503 -86.3428 289° West 382 440 40,000 240 Climbing Atlanta Center
07:08 34.0856 -86.4642 289° West 382 440 40,000  Level Atlanta Center
07:09 34.1206 -86.5906 289° West 387 445 40,000  Level Atlanta Center
07:10 34.1536 -86.7097 289° West 387 445 40,000  Level Atlanta Center
07:10 34.1711 -86.7772 287° West 383 441 40,000  Level Memphis Center
07:11 34.2014 -86.8839 289° West 378 435 40,000  Level Memphis Center
07:12 34.2364 -87.0183 288° West 378 435 40,000  Level Memphis Center
07:13 34.2708 -87.1425 289° West 378 435 40,000  Level Memphis Center
07:14 34.3072 -87.2594 291° West 378 435 40,000  Level Memphis Center
07:15 34.3414 -87.3789 289° West 378 435 40,000  Level Memphis Center
07:16 34.3714 -87.5036 286° West 378 435 40,000  Level Memphis Center
07:17 34.3989 -87.6133 287° West 378 435 40,000  Level Memphis Center
07:18 34.4350 -87.7383 289° West 384 442 40,000  Level Memphis Center
07:19 34.4689 -87.8631 288° West 384 442 40,000  Level Memphis Center
07:20 34.5028 -87.9881 288° West 389 448 40,000  Level Memphis Center
07:21 34.5406 -88.1156 290° West 389 448 40,000  Level Memphis Center
07:22 34.5722 -88.2561 285° West 397 457 40,000  Level Memphis Center
07:23 34.6056 -88.3789 288° West 392 451 40,000  Level Memphis Center
07:24 34.6322 -88.4792 288° West 392 451 40,000  Level Memphis Center
07:25 34.6717 -88.6247 288° West 386 444 40,000  Level Memphis Center
07:26 34.7028 -88.7481 287° West 386 444 40,000  Level Memphis Center
07:27 34.7356 -88.8736 288° West 381 438 40,000  Level Memphis Center
07:28 34.7661 -88.9969 287° West 381 438 40,000  Level Memphis Center
07:29 34.7989 -89.1206 288° West 381 438 40,000  Level Memphis Center
07:30 34.8311 -89.2464 287° West 381 438 40,000  Level Memphis Center
07:31 34.8636 -89.3725 287° West 381 438 40,000  Level Memphis Center
07:32 34.8917 -89.4989 285° West 381 438 40,000  Level Memphis Center
07:33 34.9217 -89.6225 287° West 381 438 40,000  Level Memphis Center
07:34 34.9703 -89.7439 296° West 381 438 40,000  Level Memphis Center
07:35 35.0272 -89.8625 300° West 396 456 40,000  Level Memphis Center
07:36 35.0733 -89.9664 298° West 402 463 40,000  Level Memphis Center
07:37 35.1428 -90.1006 302° West 416 479 40,000  Level Memphis Center
07:38 35.1950 -90.2172 299° West 411 473 40,000  Level Memphis Center
07:39 35.2431 -90.3214 299° West 399 459 40,000  Level Memphis Center
07:40 35.2972 -90.4386 300° West 394 453 40,000  Level Memphis Center
07:41 35.3494 -90.5531 299° West 394 453 40,000  Level Memphis Center
07:42 35.4011 -90.6678 299° West 394 453 40,000  Level Memphis Center
07:43 35.4550 -90.7828 300° West 394 453 40,000  Level Memphis Center
07:44 35.5047 -90.8978 298° West 394 453 40,000  Level Memphis Center
07:45 35.5606 -91.0231 299° West 389 448 40,000  Level Memphis Center
07:46 35.6142 -91.1386 300° West 389 448 40,000  Level Memphis Center
07:47 35.6675 -91.2564 299° West 399 459 40,000  Level Memphis Center
07:48 35.7106 -91.3619 297° West 389 448 40,000  Level Memphis Center
07:49 35.7658 -91.4803 300° West 397 457 40,000  Level Memphis Center
07:50 35.8189 -91.5986 299° West 397 457 40,000  Level Memphis Center
07:51 35.8739 -91.7225 299° West 397 457 40,000  Level Memphis Center
07:52 35.9267 -91.8386 299° West 397 457 40,000  Level Memphis Center
07:53 35.9753 -91.9600 296° West 392 451 40,000  Level Memphis Center
07:54 36.0319 -92.0922 298° West 392 451 40,000  Level Memphis Center
07:55 36.0825 -92.1958 301° West 392 451 40,000  Level Memphis Center
07:56 36.1328 -92.3178 297° West 397 457 40,000  Level Memphis Center
07:57 36.1872 -92.4347 300° West 397 457 40,000  Level Memphis Center
07:58 36.2353 -92.5544 296° West 397 457 40,000  Level Memphis Center
07:59 36.2872 -92.6742 298° West 397 457 40,000  Level Memphis Center
08:00 36.3392 -92.7917 299° West 397 457 40,000  Level Memphis Center
08:01 36.3908 -92.9169 297° West 402 463 40,000  Level Memphis Center
08:02 36.4428 -93.0319 299° West 396 456 40,000  Level Memphis Center
08:04 36.5289 -93.2378 298° West 389 448 40,000  Level Kansas City Center
08:05 36.5781 -93.3550 298° West 388 447 40,000  Level Kansas City Center
08:06 36.6278 -93.4717 298° West 384 442 40,000  Level Kansas City Center
08:07 36.6769 -93.5894 298° West 384 442 40,000  Level Kansas City Center
08:08 36.7261 -93.7075 297° West 385 443 40,000  Level Kansas City Center
08:09 36.7722 -93.8197 297° West 387 445 40,000  Level Kansas City Center
08:10 36.8225 -93.9397 298° West 390 449 40,000  Level Kansas City Center
08:11 36.8717 -94.0600 297° West 391 450 40,000  Level Kansas City Center
08:12 36.9322 -94.2058 297° West 393 452 40,000  Level Kansas City Center
08:13 36.9828 -94.3278 297° West 395 455 40,000  Level Kansas City Center
08:14 37.0300 -94.4489 296° West 392 451 40,000  Level Kansas City Center
08:15 37.0797 -94.5714 297° West 393 452 40,000  Level Kansas City Center
08:16 37.1297 -94.6925 297° West 393 452 40,000  Level Kansas City Center
08:17 37.1792 -94.8153 297° West 394 453 40,000  Level Kansas City Center
08:18 37.2281 -94.9383 297° West 395 455 40,000  Level Kansas City Center
08:19 37.2767 -95.0611 296° West 394 453 40,000  Level Kansas City Center
08:20 37.3256 -95.1836 297° West 393 452 40,000  Level Kansas City Center
08:21 37.3742 -95.3067 296° West 393 452 40,000  Level Kansas City Center
08:22 37.4225 -95.4283 297° West 392 451 40,000  Level Kansas City Center
08:23 37.4719 -95.5517 297° West 393 452 40,000  Level Kansas City Center
08:24 37.5208 -95.6761 296° West 396 456 40,000  Level Kansas City Center
08:25 37.5694 -95.8014 296° West 397 457 40,000  Level Kansas City Center
08:26 37.6275 -95.9533 296° West 399 459 40,000  Level Kansas City Center
08:27 37.6767 -96.0792 296° West 401 461 40,000  Level Kansas City Center
08:28 37.7253 -96.2033 296° West 399 459 40,000  Level Kansas City Center
08:29 37.7722 -96.3275 296° West 394 453 40,000  Level Kansas City Center
08:30 37.8194 -96.4525 296° West 394 453 40,000  Level Kansas City Center
08:31 37.8669 -96.5758 296° West 392 451 40,000  Level Kansas City Center
08:32 37.9139 -96.7003 296° West 392 451 40,000  Level Kansas City Center
08:33 37.9606 -96.8247 295° West 392 451 40,000  Level Kansas City Center
08:34 38.0072 -96.9492 295° West 392 451 40,000  Level Kansas City Center
08:36 38.0556 -97.0742 296° West 395 455 40,000  Level Kansas City Center
08:37 38.1022 -97.2019 295° West 399 459 40,000  Level Kansas City Center
08:38 38.1497 -97.3283 296° West 399 459 40,000  Level Kansas City Center
08:39 38.1961 -97.4553 295° West 399 459 40,000  Level Kansas City Center
08:40 38.2425 -97.5814 295° West 397 457 40,000  Level Kansas City Center
08:41 38.2978 -97.7317 295° West 396 456 40,000  Level Kansas City Center
08:42 38.3439 -97.8567 295° West 393 452 40,000  Level Kansas City Center
08:43 38.3889 -97.9814 295° West 392 451 40,000  Level Kansas City Center
08:44 38.4339 -98.1072 295° West 392 451 40,000  Level Kansas City Center
08:45 38.4792 -98.2336 295° West 393 452 40,000  Level Kansas City Center
08:46 38.5261 -98.3617 295° West 397 457 40,000  Level Kansas City Center
08:47 38.5725 -98.4894 295° West 398 458 40,000  Level Kansas City Center
08:48 38.6175 -98.6194 294° West 401 461 40,000  Level Kansas City Center
08:49 38.6639 -98.7486 295° West 402 463 40,000  Level Kansas City Center
08:50 38.7097 -98.8789 294° West 402 463 40,000  Level Kansas City Center
08:51 38.7550 -99.0092 294° West 401 461 40,000  Level Kansas City Center
08:52 38.8108 -99.1653 295° West 403 464 40,000  Level Kansas City Center
08:53 38.8483 -99.2994 290° West 402 463 40,000  Level Kansas City Center
08:54 38.8489 -99.4431 270° West 401 461 40,000  Level Kansas City Center
08:54 38.8497 -99.4903 271° West 404 465 40,000  Level Denver Center
08:55 38.8517 -99.6483 271° West 401 461 40,000  Level Denver Center
08:56 38.8531 -99.7856 271° West 401 461 40,000  Level Denver Center
08:57 38.8533 -99.9217 270° West 400 460 40,000  Level Denver Center
08:58 38.8542 -100.0814 270° West 401 461 40,000  Level Denver Center
08:59 38.8550 -100.2156 270° West 397 457 40,000  Level Denver Center
09:00 38.8547 -100.3514 270° West 398 458 40,000  Level Denver Center
09:01 38.8556 -100.5081 270° West 398 458 40,000  Level Denver Center
09:02 38.8547 -100.6203 269° West 396 456 40,000  Level Denver Center
09:03 38.8553 -100.7797 270° West 400 460 40,000  Level Denver Center
09:04 38.8550 -100.9394 270° West 403 464 40,000  Level Denver Center
09:05 38.8544 -101.0750 270° West 400 460 40,000  Level Denver Center
09:06 38.8525 -101.2375 269° West 405 466 40,000  Level Denver Center
09:07 38.8519 -101.3747 270° West 404 465 40,000  Level Denver Center
09:08 38.8514 -101.5111 270° West 401 461 40,000  Level Denver Center
09:09 38.8497 -101.6692 269° West 400 460 40,000  Level Denver Center
09:10 38.8486 -101.8050 269° West 401 461 40,000  Level Denver Center
09:11 38.8475 -101.9394 269° West 398 458 40,000  Level Denver Center
09:12 38.8453 -102.0986 269° West 398 458 40,000  Level Denver Center
09:13 38.8431 -102.2369 269° West 402 463 40,000  Level Denver Center
09:14 38.8408 -102.3753 269° West 405 466 40,000  Level Denver Center
09:15 38.8378 -102.5378 269° West 408 470 40,000  Level Denver Center
09:16 38.8350 -102.6769 269° West 409 471 40,000 -420 Level Denver Center
09:17 38.8667 -102.8169 286° West 406 467 39,200 -1,740 Descending Denver Center
09:18 38.9269 -102.9422 302° West 408 470 36,500 -2,580 Descending Denver Center
09:19 38.9872 -103.0658 302° West 405 466 34,000 -1,260 Descending Denver Center
09:20 39.0472 -103.1925 301° West 410 472 34,000 -360 Level Denver Center
09:21 39.1067 -103.3203 301° West 413 475 33,300 -1,800 Descending Denver Center
09:22 39.1672 -103.4478 302° West 414 476 30,400 -2,640 Descending Denver Center
09:23 39.2269 -103.5717 302° West 405 466 28,000 -2,400 Descending Denver Center
09:24 39.2847 -103.6950 301° West 399 459 25,600 -2,340 Descending Denver Center
09:25 39.3397 -103.8139 301° West 386 444 23,300 -1,800 Descending Denver Center
09:27 39.3900 -103.9253 300° West 363 418 22,000 -1,260 Descending Denver Center
09:28 39.4319 -103.9994 306° West 329 379 20,800 -1,680 Descending Denver Center
09:29 39.4986 -104.1075 309° West 315 362 18,700 -1,860 Descending Denver Center
09:30 39.5478 -104.1936 307° West 301 346 17,100 -840 Descending Denver Center
09:31 39.5989 -104.2756 309° West 296 341 17,000 -420 Descending Denver Center
09:32 39.6514 -104.3647 307° West 290 334 16,300 -1,140 Descending Denver Center
09:33 39.7006 -104.4453 308° West 284 327 14,800 -1,500 Descending Denver Center
09:34 39.7508 -104.5181 312° West 278 320 13,300 -1,500 Descending Denver Center
09:35 39.8314 -104.5225 358° North 290 334 11,800 -1,140 Descending Denver Center
09:36 39.9069 -104.5217 360° North 269 310 11,100 -600 Descending Denver Center
09:37 39.9772 -104.5200 North 239 275 10,600 -720 Descending Denver Center
09:37 40.0000 -104.5167 North 226 260 10,100 -900 Descending Denver TRACON
09:39 40.0892 -104.5442 347° North 213 245 8,800 -1,140 Descending Denver Center
09:39 40.0833 -104.5833 259° West 221 254 7,900 -900 Descending Denver TRACON
09:41 40.0203 -104.6603 223° Southwest 220 253 7,000 -480 Descending Denver Center
09:42 39.9722 -104.6858 202° Southwest 178 205 6,700 -480 Descending Denver Center
09:43 39.9281 -104.6864 181° South 160 184 6,100 -720 Descending Denver Center
09:44 39.8908 -104.6872 181° South 147 169 5,300 -840 Descending Denver Center
09:46 39.8617 -104.6732 North  Level Estimated
09:53 39.8617 -104.6732 North  Level Estimated
09:54 39.8617 -104.6732 North  Level Estimated